This demonstration page uses our WeatherBlox Daily Observations layout. Learn more.

Left ArrowRight Arrow

39.92423, -83.80882

Hourly Observations for March 28, 2018

Temp ( °F °C ) Dew Point ( °F °C ) Humidity (%) Winds ( mph kmh ) Pressure ( in mb ) Visibility ( mi km ) Precip ( " mm )
12:38 am 00:38 Cloudy with Rain 54 12 52 11 94 94 W 7 11 30.03 1017 3 4 0.02 0.51
12:56 am 00:56 Cloudy with Light Rain 53 11.7 52 11.1 96 96 WSW 7 11 30.03 1017 3 4 0.04 1.02
1:45 am 01:45 Cloudy with Light Rain 52 11 52 11 100 100 W 5 7 30.03 1017 2 3 0.03 0.76
1:52 am 01:52 Cloudy with Light Rain 52 11 52 11 100 100 W 5 7 30.00 1016 2 3 0.03 0.76
1:56 am 01:56 Cloudy with Light Rain 52 11.1 52 11.1 100 100 W 5 7 30.02 1017 2 3 0.03 0.76
2:03 am 02:03 Cloudy with Light Rain 52 11 52 11 100 100 W 3 6 30.00 1016 2 2 N/A
2:16 am 02:16 Cloudy with Light Rain 52 11 52 11 100 100 WSW 5 7 30.00 1016 1 2 0.01 0.25
2:37 am 02:37 Cloudy with Light Rain 52 11 52 11 100 100 WSW 3 6 30.00 1016 1 1 0.01 0.25
2:56 am 02:56 Cloudy with Light Rain 52 11.1 52 11.1 100 100 SW 3 6 30.01 1016 1 1 0.02 0.51
3:56 am 03:56 Cloudy with Light Rain 52 11.1 51 10.6 97 97 N N/A 29.99 1016 1 1 0.03 0.76
4:04 am 04:04 Cloudy with Light Rain 52 11 52 11 100 100 SW 3 6 29.97 1015 1 1 N/A
4:26 am 04:26 Cloudy with Light Rain 52 11 52 11 100 100 N N/A 29.97 1015 1 1 0.02 0.51
4:51 am 04:51 Cloudy with Light Rain 52 11 52 11 100 100 N N/A 29.97 1015 1 1 0.04 1.02
4:56 am 04:56 Cloudy with Light Rain 52 11.1 51 10.6 97 97 N N/A 29.98 1015 1 1 0.04 1.02
5:05 am 05:05 Cloudy with Light Rain 52 11 52 11 100 100 N N/A 29.97 1015 1 2 0.01 0.25
5:14 am 05:14 Cloudy with Light Rain 52 11 52 11 100 100 N N/A 29.97 1015 1 1 0.02 0.51
5:56 am 05:56 Cloudy with Light Rain 51 10.6 51 10.6 100 100 N N/A 29.97 1015 1 1 0.04 1.02
6:40 am 06:40 Cloudy with Light Rain 50 10 50 10 100 100 N N/A 29.97 1015 1 1 0.02 0.51
6:56 am 06:56 Cloudy with Light Rain 50 10 50 10 100 100 N 6 9 29.99 1016 1 2 0.02 0.51
6:59 am 06:59 Cloudy with Light Rain 50 10 48 9 94 94 N 5 7 29.97 1015 3 4 N/A
7:06 am 07:06 Cloudy with Rain 48 9 48 9 100 100 N 5 7 30.03 1017 4 6 0.01 0.25
7:22 am 07:22 Cloudy with Rain 48 9 48 9 100 100 N 5 7 30.03 1017 3 4 0.04 1.02
7:34 am 07:34 Cloudy with Rain 48 9 48 9 100 100 N 5 7 30.03 1017 2 3 0.06 1.52
7:40 am 07:40 Cloudy with Rain 48 9 48 9 100 100 N 5 7 30.03 1017 2 3 0.06 1.52
7:56 am 07:56 Cloudy with Rain 48 8.9 48 8.9 100 100 N 5 7 30.01 1016 3 4 0.08 2.03
7:58 am 07:58 Cloudy with Rain 48 9 48 9 100 100 N 6 9 30.03 1017 3 5 0.01 0.25
8:17 am 08:17 Cloudy with Light Rain 48 9 48 9 100 100 NE 6 9 30.03 1017 3 4 0.03 0.76
8:24 am 08:24 Cloudy with Light Rain 48 9 48 9 100 100 NE 5 7 30.00 1016 3 4 0.03 0.76
8:32 am 08:32 Cloudy with Light Rain 48 9 48 9 100 100 ENE 9 15 30.00 1016 4 6 0.03 0.76
8:56 am 08:56 Cloudy with Light Rain 49 9.4 48 8.9 97 97 ENE 7 11 29.99 1016 10 16 0.03 0.76
9:56 am 09:56 Cloudy with Light Rain 49 9.4 49 9.4 100 100 ESE 7 11 29.97 1015 10 16 N/A
10:56 am 10:56 Cloudy with Light Rain 51 10.6 50 10 96 96 ESE 6 9 29.98 1015 10 16 N/A
11:56 am 11:56 Cloudy with Light Rain 52 11.1 52 11.1 100 100 N N/A 29.98 1015 9 14 0.02 0.51
12:22 pm 12:22 Cloudy with Light Rain 54 12 52 11 94 94 N N/A 29.97 1015 10 16 N/A
12:56 pm 12:56 Cloudy 54 12.2 53 11.7 97 97 SSE 6 9 29.97 1015 10 16 N/A
1:56 pm 13:56 Cloudy 55 12.8 53 11.7 93 93 N N/A 29.96 1014 10 16 N/A
2:56 pm 14:56 Cloudy with Mist and Fog 52 11.1 51 10.6 97 97 NE 8 13 29.93 1013 5 8 N/A
3:26 pm 15:26 Cloudy with Light Rain 52 11 52 11 100 100 NE 8 13 29.91 1013 4 6 N/A
3:56 pm 15:56 Cloudy with Light Rain 51 10.6 51 10.6 100 100 ENE 7 11 29.92 1013 3 5 N/A
4:56 pm 16:56 Cloudy with Light Rain 52 11.1 51 10.6 97 97 NNE 5 7 29.93 1014 3 5 N/A
5:28 pm 17:28 Cloudy with Light Rain 52 11 52 11 100 100 NNE 7 11 29.91 1013 3 4 N/A
6:16 pm 18:16 Cloudy with Mist and Fog 52 11 50 10 94 94 NE 6 9 29.91 1013 1 2 N/A
6:29 pm 18:29 Cloudy with Mist and Fog 50 10 50 10 100 100 NE 6 9 29.91 1013 1 2 N/A
6:36 pm 18:36 Cloudy with Mist and Fog 50 10 50 10 100 100 NE 7 11 29.91 1013 1 2 N/A
6:56 pm 18:56 Cloudy with Fog 50 10 50 10 100 100 NE 6 9 29.93 1014 1 1 N/A
7:12 pm 19:12 Cloudy with Mist and Fog 50 10 50 10 100 100 ENE 6 9 29.94 1014 1 2 N/A
7:25 pm 19:25 Cloudy with Fog 50 10 50 10 100 100 NE 6 9 29.94 1014 1 1 N/A
7:40 pm 19:40 Cloudy with Fog 50 10 50 10 100 100 ENE 7 11 29.91 1013 0 0 N/A
7:56 pm 19:56 Cloudy with Fog 50 10 50 10 100 100 ENE 7 11 29.93 1014 0 0 N/A
8:23 pm 20:23 Cloudy with Fog 50 10 50 10 100 100 E 6 9 29.94 1014 1 1 N/A
8:43 pm 20:43 Cloudy with Light Rain 50 10 50 10 100 100 ENE 3 6 29.94 1014 0 0 N/A
8:56 pm 20:56 Cloudy with Light Rain 50 10 50 10 100 100 ENE 3 6 29.94 1014 0 0 N/A
9:25 pm 21:25 Cloudy with Light Rain 50 10 50 10 100 100 E 3 6 29.94 1014 1 1 N/A
9:56 pm 21:56 Cloudy with Light Rain N/A N/A N/A ENE 5 7 N/A 0 0 0.01 0.25
10:31 pm 22:31 Cloudy with Fog 50 10 50 10 100 100 N N/A 29.94 1014 1 1 N/A
10:47 pm 22:47 Cloudy with Fog 50 10 50 10 100 100 E 3 6 29.94 1014 0 0 N/A
10:56 pm 22:56 Cloudy with Light Rain 50 10 50 10 100 100 ESE 6 9 29.94 1014 0 0 N/A
11:10 pm 23:10 Cloudy with Fog 50 10 50 10 100 100 ESE 7 11 29.91 1013 1 1 N/A
11:56 pm 23:56 Cloudy with Fog 50 10 50 10 100 100 SE 3 6 29.93 1014 1 1 N/A

Powered by AerisWeather